Home   Weather   Fort Worth   Past weeks

Flag for USA Past Weather in Fort Worth, Texas, USA — Yesterday and Last 2 Weeks

Now
76 °F

Overcast.


Feels Like: 77 °F
Forecast: 53 / 75 °F
Wind: 8 mph from Southwest

Location: Meacham International Airport

Current Time: Apr 26, 2017 at 5:17:42 am

Latest Report: Apr 26, 2017 at 3:53 am


Visibility: 10 mi

Pressure: 29.42 "Hg

Humidity: 80%

Dew Point: 69 °F

Location of Fort WorthLocation

Past Weather in Fort Worth — Graph

°F

Fort Worth Temperature Yesterday

Maximum temperature yesterday: 87 °F (at 1:53 pm)
Minimum temperature yesterday: 63 °F (at 5:53 am)
Average temperature yesterday: 76 °F

High & Low Weather Summary for the Past Weeks

 TemperatureHumidityPressure
High87 °F (Apr 25, 1:53 pm)100% (Apr 18, 1:53 am)30.23 "Hg (Apr 18, 1:53 am)
Low49 °F (Apr 23, 6:53 am)31% (Apr 23, 5:53 pm)29.38 "Hg (Apr 26, 12:53 am)
Average70 °F73%29.97 "Hg
* Reported Apr 11 3:44 am — Apr 26 3:53 am, Fort Worth, Weather by CustomWeather, © 2017

Note: Actual official high and low records may vary slightly from our data, if they occured in-between our weather recording intervals... More about our weather records

Advertising

Fort Worth Weather History for the Previous 24 Hours

Scroll right to see more
 ConditionsComfort  
Time TempWeatherWind HumidityBarometerVisibility
3:53 am
Wed, Apr 26
76 °FOvercast.8 mph80%29.42 "Hg10 mi
3:15 am75 °FPassing clouds.12 mph82%29.44 "Hg10 mi
2:53 am76 °FMostly cloudy.12 mph80%29.41 "Hg10 mi
1:53 am76 °FOvercast.22 mph80%29.38 "Hg10 mi
12:53 am76 °FOvercast.20 mph82%29.38 "Hg10 mi
11:53 pm
Tue, Apr 25
76 °FPassing clouds.17 mph82%29.39 "Hg10 mi
10:53 pm77 °FClear.18 mph77%29.40 "Hg10 mi
9:53 pm78 °FClear.16 mph74%29.39 "Hg10 mi
8:53 pm80 °FClear.22 mph69%29.38 "Hg10 mi
7:53 pm81 °FSunny.14 mph65%29.39 "Hg10 mi
6:53 pm83 °FSunny.21 mph61%29.39 "Hg10 mi
5:53 pm85 °FSunny.20 mph57%29.39 "Hg10 mi
4:53 pm85 °FSunny.20 mph57%29.39 "Hg10 mi
3:53 pm86 °FSunny.20 mph55%29.41 "Hg10 mi
2:53 pm86 °FSunny.20 mph55%29.43 "Hg10 mi
1:53 pm87 °FSunny.20 mph51%29.45 "Hg10 mi
12:53 pm82 °FSunny.18 mph56%29.47 "Hg10 mi
11:53 am81 °FSunny.15 mph58%29.49 "Hg10 mi
10:53 am77 °FSunny.17 mph62%29.51 "Hg10 mi
9:53 am74 °FSunny.21 mph64%29.50 "Hg10 mi
8:53 am70 °FSunny.20 mph71%29.50 "Hg10 mi
7:53 am65 °FSunny.15 mph78%29.52 "Hg10 mi
6:53 am63 °FSunny.13 mph78%29.52 "Hg10 mi
5:53 am63 °FClear.14 mph75%29.52 "Hg10 mi
Weather by CustomWeather, © 2017

See weather overviewHow to use our weather pages